GW0118 Weather Reports


time (UTC)temp
C
wind
direction
speed
KPH
gust
KPH
rain 1hr
cm
rain 24hr
cm
rain mn
cm
humidity
%
barometer
mb
20260905171606 31 269 3.2 8.0 0.00 0.00 0.00 25 1025.6
20260905164603 32 221 6.4 12.9 0.00 0.00 0.00 24 1025.5
20260905163109 32 226 8.0 16.1 0.00 0.00 0.00 24 1025.3
20260905161605 32 255 11.3 20.9 0.00 0.00 0.00 23 1025.3
20260905160110 33 251 6.4 16.1 0.00 0.00 0.00 20 1025.1
20260905154605 33 182 6.4 12.9 0.00 0.00 0.00 20 1025.1
20260905153113 33 257 3.2 22.5 0.00 0.00 0.00 20 1025.0
20260905151601 33 281 8.0 17.7 0.00 0.00 0.00 20 1025.1
20260905150104 33 219 4.8 17.7 0.00 0.00 0.00 21 1025.2
20260905144613 33 157 4.8 12.9 0.00 0.00 0.00 21 1025.3
20260905143108 33 255 6.4 17.7 0.00 0.00 0.00 20 1025.5
20260905141615 33 184 11.3 19.3 0.00 0.00 0.00 20 1025.6
20260905140109 34 22 9.7 25.7 0.00 0.00 0.00 20 1025.8
20260905134612 34 182 8.0 19.3 0.00 0.00 0.00 19 1025.9
20260905133102 34 265 12.9 24.1 0.00 0.00 0.00 20 1026.0
20260905131608 35 239 14.5 29.0 0.00 0.00 0.00 19 1026.0
20260905130113 35 191 12.9 22.5 0.00 0.00 0.00 20 1026.2
20260905124601 34 207 8.0 25.7 0.00 0.00 0.00 20 1026.3
20260905123102 34 265 4.8 22.5 0.00 0.00 0.00 21 1026.5
20260905121603 34 146 4.8 24.1 0.00 0.00 0.00 21 1026.6
20260905120105 33 57 4.8 22.5 0.00 0.00 0.00 22 1026.9
20260905114636 33 242 11.3 24.1 0.00 0.00 0.00 23 1026.9
20260905113102 33 216 8.0 22.5 0.00 0.00 0.00 23 1027.0
20260905111603 33 184 12.9 22.5 0.00 0.00 0.00 22 1027.1
20260905110059 32 203 6.4 24.1 0.00 0.00 0.00 23 1027.1
20260905104604 32 239 8.0 27.4 0.00 0.00 0.00 23 1027.3
20260905103104 32 216 8.0 20.9 0.00 0.00 0.00 23 1027.4
20260905101559 32 279 9.7 19.3 0.00 0.00 0.00 24 1027.5
20260905100114 31 195 6.4 19.3 0.00 0.00 0.00 24 1027.6
20260905094625 31 164 11.3 19.3 0.00 0.00 0.00 25 1027.6
20260905093103 30 211 4.8 14.5 0.00 0.00 0.00 28 1027.6
20260905091615 29 275 3.2 17.7 0.00 0.00 0.00 29 1027.5
20260905090105 28 226 3.2 8.0 0.00 0.00 0.00 30 1027.4
20260905084600 26 0 0.0 3.2 0.00 0.00 0.00 35 1027.3
20260905083103 25 78 3.2 4.8 0.00 0.00 0.00 36 1027.1
20260905081603 24 64 1.6 3.2 0.00 0.00 0.00 37 1027.1
20260905080106 23 0 0.0 1.6 0.00 0.00 0.00 42 1027.1
20260905074604 21 0 0.0 3.2 0.00 0.00 0.00 43 1027.2
20260905073113 20 250 1.6 3.2 0.00 0.00 0.00 45 1027.1
20260905071601 21 0 0.0 1.6 0.00 0.00 0.00 43 1027.0
20260905070105 20 68 3.2 8.0 0.00 0.00 0.00 45 1026.8
20260905064615 19 60 3.2 4.8 0.00 0.00 0.00 46 1026.9
20260905063117 18 59 3.2 8.0 0.00 0.00 0.00 48 1026.7
20260905061624 18 70 1.6 6.4 0.00 0.00 0.00 46 1026.7
20260905060106 19 0 0.0 0.0 0.00 0.00 0.00 44 1026.6
20260905054606 18 0 0.0 1.6 0.00 0.00 0.00 44 1026.6
20260905053104 18 0 0.0 1.6 0.00 0.00 0.00 46 1026.5
20260905051612 18 0 0.0 0.0 0.00 0.00 0.00 46 1026.5
20260905050109 18 0 0.0 0.0 0.00 0.00 0.00 46 1026.3
20260905044607 18 0 0.0 0.0 0.00 0.00 0.00 46 1026.4
20260905043103 20 0 0.0 0.0 0.00 0.00 0.00 43 1026.2
20260905041603 19 0 0.0 0.0 0.00 0.00 0.00 45 1026.2
20260905040106 19 0 0.0 0.0 0.00 0.00 0.00 44 1026.3
20260905034613 20 0 0.0 0.0 0.00 0.00 0.00 42 1026.4
20260905033111 20 0 0.0 0.0 0.00 0.00 0.00 41 1026.4
20260905031616 20 0 0.0 1.6 0.00 0.00 0.00 41 1026.3
20260905030107 21 0 0.0 0.0 0.00 0.00 0.00 39 1026.5
20260905024605 21 0 0.0 0.0 0.00 0.00 0.00 39 1026.5
20260905023137 21 0 0.0 0.0 0.00 0.00 0.00 38 1026.6
20260905021605 21 0 0.0 1.6 0.00 0.00 0.00 38 1026.6
20260905020106 21 0 0.0 1.6 0.00 0.00 0.00 38 1026.7
20260905014611 22 0 1.6 11.3 0.00 0.00 0.00 35 1026.7
20260905013105 21 100 3.2 9.7 0.00 0.00 0.00 39 1026.7
20260905011607 22 75 3.2 4.8 0.00 0.00 0.00 38 1026.7
20260905010112 22 0 0.0 0.0 0.00 0.00 0.00 37 1026.8
20260905004614 22 0 0.0 1.6 0.00 0.00 0.00 38 1026.9
20260905003103 21 77 0.0 0.0 0.00 0.00 0.00 41 1026.8
20260905001611 22 0 0.0 0.0 0.00 0.00 0.00 38 1026.8
20260905000125 22 0 0.0 0.0 0.00 0.00 0.00 38 1026.7
20260904234602 22 0 0.0 0.0 0.00 0.00 0.00 38 1026.7
20260904233105 23 0 0.0 0.0 0.00 0.00 0.00 36 1026.9
20260904231603 23 0 0.0 3.2 0.00 0.00 0.00 35 1026.8
20260904230105 22 55 0.0 3.2 0.00 0.00 0.00 37 1026.7
20260904224605 24 0 0.0 1.6 0.00 0.00 0.00 34 1026.7
20260904223102 24 0 0.0 1.6 0.00 0.00 0.00 33 1026.7
20260904221605 25 0 0.0 1.6 0.00 0.00 0.00 33 1026.6
20260904220120 25 0 0.0 4.8 0.00 0.00 0.00 31 1026.7
20260904214604 25 114 3.2 6.4 0.00 0.00 0.00 31 1026.7
20260904213101 26 63 1.6 4.8 0.00 0.00 0.00 30 1026.7
20260904211608 26 111 1.6 4.8 0.00 0.00 0.00 30 1026.8
20260904210118 26 73 1.6 6.4 0.00 0.00 0.00 30 1026.9
20260904204604 26 0 0.0 3.2 0.00 0.00 0.00 30 1026.9
20260904203111 26 97 3.2 9.7 0.00 0.00 0.00 29 1026.8
20260904201602 27 101 3.2 11.3 0.00 0.00 0.00 27 1026.6
20260904194612 27 84 0.0 3.2 0.00 0.00 0.00 26 1026.5
20260904193116 27 75 1.6 9.7 0.00 0.00 0.00 26 1026.3
20260904191601 28 132 0.0 4.8 0.00 0.00 0.00 25 1025.9
20260904190107 29 144 3.2 6.4 0.00 0.00 0.00 24 1025.6
20260904184621 30 139 0.0 1.6 0.00 0.00 0.00 24 1025.6
20260904183103 31 322 0.0 6.4 0.00 0.00 0.00 23 1025.5
20260904181610 31 25 4.8 11.3 0.00 0.00 0.00 21 1025.5
20260904180119 31 341 4.8 12.9 0.00 0.00 0.00 21 1025.5
20260904174617 32 342 4.8 14.5 0.00 0.00 0.00 21 1025.6
20260904173107 32 18 8.0 19.3 0.00 0.00 0.00 21 1025.5